www.pogodaiklimat.ru

ПОГОДА в Харлане, KY

  • Прогноз погоды в Харлане
  • Монитор погоды в Харлане
  • Климат в Харлане

АРХИВ ПОГОДЫ в Харлане

Время (UTC), дата Ветер
(напр.,м/с)
 
Видим.   Явления Облачность Т
(С)
Тd
(С)
f
(%)
Тe
(С)
Тes
(С)
Комфортность

P
(гПа)

Po
(гПа)
Тmin
(С)
Tmax
(С)
R
(мм)
SD
(см)
12:35 24.03   16 км    ясно  +4.4  -1.9  64  +4  +7      968.7         
12:55 24.03   16 км    ясно  +5.3  -2.7  56  +5  +8      968.7         
13:15 24.03   16 км    ясно  +6.4  -2.7  52  +6  +13      968.7         
13:35 24.03   16 км    ясно  +8.1  -2.5  47  +8  +15      968.4         
13:55 24.03   16 км    ясно  +9.5  -2.3  43  +9  +17      968.4         
14:15 24.03   16 км    ясно  +11.6  -2.4  38  +12  +24  опасность
простуды 
  968.4         
14:35 24.03   16 км    ясно  +14.0  -3.2  30  +14  +26  опасность
простуды 
  968.1         
14:55 24.03   16 км    ясно  +15.3  -4.5  25  +15  +28  опасность
простуды 
  968.1         
15:15 24.03   16 км    ясно  +15.6  -4.8  24  +16  +33  опасность
простуды 
  967.8         
15:35 24.03 З  16 км    ясно  +16.5  -5.1  22  +16  +27      967.4         
15:55 24.03 Ю  16 км    ясно  +18.1  -5.1  20  +18  +27      967.1         
16:15 24.03 З  16 км    ясно  +18.7  -5.0  20  +19  +28      966.5         
16:35 24.03 ЮЗ  16 км    ясно  +19.0  -4.5  20  +19  +27      966.5         
16:55 24.03 З  2
{7} 
16 км    ясно  +19.5  -4.0  20  +20  +33  опасность
простуды 
  965.8  -0.6  +19.5     
17:15 24.03 ЮЗ  4
{10} 
16 км    ясно  +19.8  -4.3  19  +20  +29      965.5         
17:35 24.03 ЮЗ  16 км    ясно  +20.0  -3.9  20  +21  +36  комфорт    965.2         
17:55 24.03 Ю  16 км    ясно  +20.1  -3.7  20  +20  +30      964.9         
18:15 24.03 ЮЗ  5
{8} 
16 км    ясно  +20.4  -3.9  19  +20  +25      964.6         
18:35 24.03 ЮЗ  16 км    ясно  +19.6  -3.9  20  +19  +28      964.6         
18:55 24.03 ЮЗ  4
{7} 
16 км    ясно  +19.4  -3.6  21  +19  +28      964.6         
19:15 24.03   16 км    ясно  +18.7  -3.6  22  +19  +32  опасность
простуды 
  964.2         
19:35 24.03 ЮВ  16 км    ясно  +18.9  -3.0  22  +20  +30      964.2         
19:55 24.03 Ю  16 км    ясно  +19.1  -3.2  22  +19  +27      963.9         
20:15 24.03 Ю  16 км    ясно  +18.9  -3.0  22  +19  +25      963.9         
20:35 24.03 Ю  16 км    5/0 3600 м
[средняя] 
+18.7  -2.5  24  +19  +24      963.6         
20:55 24.03   16 км    5/0 3600 м
[средняя] 
+18.5  -2.5  24  +18  +24      963.6         
21:15 24.03   16 км    8/0 3600 м
[средняя] 
+18.5  -2.5  24  +18  +20      963.3         
21:35 24.03   16 км    10/0 3600 м
[средняя] 
+18.2  -2.1  25  +18  +19      963.3         
21:55 24.03   16 км    10/0 3300 м
[средняя] 
+18.2  -1.7  26  +18  +19      963.3         
22:15 24.03   16 км    10/0 3300 м
[средняя] 
+18.0  -1.8  26  +18  +18      963.6         
22:35 24.03   16 км    10/0 3300 м
[средняя] 
+17.7  -1.7  27  +18  +18      963.3         
22:55 24.03 Ю  16 км    10/0 3300 м
[средняя] 
+17.5  -1.5  27  +18  +18      963.6  +17.5  +20.4     
23:15 24.03   16 км    10/0 3600 м
[средняя] 
+17.2  -1.4  28  +17  +17      963.3         
23:35 24.03   16 км    10/0 3300 м
[средняя] 
+17.0  -1.1  29  +17  +17      963.6         
23:55 24.03 З  16 км    10/0 3300 м
[средняя] 
+16.7  -0.8  30  +17  +17      963.6         
00:15 25.03   16 км    8/0 3600 м
[средняя] 
+16.0  -0.7  32  +16  +16      963.6         
00:35 25.03   16 км    5/0 3600 м
[средняя] 
+15.8  -0.7  32  +16  +16      963.6         
00:55 25.03   16 км    8/0 3300 м
[средняя] 
+14.8  -0.8  34  +15  +15      963.6         
01:15 25.03   16 км    5/0 3300 м
[средняя] 
+14.3  -0.5  36  +14  +14      963.6         
01:35 25.03   16 км    5/0 3300 м
[средняя] 
+13.4  0.0  40  +13  +13      963.6         
01:55 25.03   16 км    ясно  +13.1  0.0  41  +13  +13      963.6         
02:15 25.03   16 км    ясно  +12.5  +0.2  43  +12  +12      963.3         
02:35 25.03 ЮВ  16 км    ясно  +11.5  +0.5  47  +11  +11      963.3         
02:55 25.03   16 км    5/0 3000 м
[средняя] 
+10.9  +0.5  49  +11  +11      963.0         
03:15 25.03   16 км    8/0 2250 м
[средняя] 
+10.5  +0.5  50  +10  +10      963.0         
03:35 25.03 ЮВ  16 км    5/0 3000 м
[средняя] 
+9.9  +0.7  53  +9  +9      962.6         
03:55 25.03   16 км    5/0 2250 м
[средняя] 
+9.5  +0.8  55  +9  +9      962.6         
04:15 25.03   16 км    5/0 2250 м
[средняя] 
+9.3  +0.9  56  +9  +9      962.6         

 

Местоположение метеостанции Tucker-Guthrie Memorial Airport: широта 36.8593 долгота -83.3585 высота над уровнем моря 473 м.

В архиве по умолчанию представлена погода в Харлане за последние 1-2 суток. Обновление информации о фактической погоде в базе происходит ежечасно! Архивные данные за месяц целиком и за предыдущие месяцы Вы можете получить, выбрав интересующий диапазон дат из раскрывающегося списка и нажав кнопку "Ввод!".

Внимание! Архив погоды МЕТАР в базе сайта хранится не более 60 дней. Нет смысла пытаться выбрать более раннюю дату.

Внимание! Время в таблицах - всемирное. Для получения местного времени необходимо прибавить поправку, которая в Харлане равна -5 ч.

Ветер - указаны скорость ветра в м/с и направление, откуда дует ветер: С - северный, СВ - северо-восточный, В - восточный, ЮВ - юго-восточный, Ю - южный, ЮЗ - юго-западный, З - западный, СЗ - северо-западный.
Видимость - горизонтальная дальность видимости в метрах или километрах. При видимости от 1 до 10 км при отсутствии осадков обычно наблюдается дымка, при ухудшении видимости до 1 км и менее - туман. В сухую погоду видимость может ухудшаться дымом, пылью или мглою.
Атмосферные явления - указаны явления, наблюдавшиеся в указанный момент времени.
Облачность - указаны через наклонную черту верхняя и нижняя облачность в баллах и высота нижней границы облаков в метрах. Внимание: облачность, как и прочие метеорологические величины в США измеряются автоматическими метеостанциями. Указанные значения в баллах носят условный характер и показывают процент времени, в течение которого, в среднем, лазерный луч высотомера отражался от облаков обратно.
T - Температура воздуха - температура, измеренная на высоте 2 м над землей.
Td - Температура точки росы - температура, при понижении до которой содержащийся в воздухе водяной пар достигнет насыщения.
f - Относительная влажность воздуха - влажноcть воздуха, измеренная на высоте 2 м над землей.
Te - Эффективная температура - температура, которую ощущает одетый по сезону человек в тени. Характеристика душности погоды. При расчете учитывается влияние влажности воздуха и скорости ветра на теплоощущения человека.
Tes - Эффективная температура на солнце - температура, которую ощущает человек, с поправкой на солнечный нагрев. Характеристика знойности погоды. Зависит от высоты солнца над горизонтом, облачности и скорости ветра. Ночью, в пасмурную погоду, а также при ветре 12 м/с и более поправка равна нулю.
P - Атмосферное давление - приведенное к уровню моря атмосферное давление.
Po - Атмосферное давление - измеренное на уровне метеостанции атмосферное давление.
Tmin - Минимальная температура - минимум температуры воздуха на высоте 2 м над землей.
Tmax - Максимальная температура - максимум температуры воздуха на высоте 2 м над землей.
R - Количество осадков - Количество выпавших осадков за 3 или 6 часов, мм.
SD - Снежный покров - Высота снежного покрова, см.